Location: New Frontier Mobile Home Park
(32.8448°N, 116.9675°W)
Time: 23:16:14
(UTC+00:00)

ADEOS II - Pass Details

Date: 14 July 2020
Orbit: 799 x 801 km, 98.5° (Epoch: 05 August)

Event Time Altitude Azimuth Distance (km) Brightness Sun altitude
Rises 11:26:16 0° 350° (N) 3,312 5.7 -15.6°
Reaches altitude 10° 11:29:39 10° 327° (NNW) 2,377 4.6 -15.1°
Maximum altitude 11:32:24 15° 295° (WNW) 2,070 4.0 -14.6°
Enters shadow 11:34:13 12° 273° (W) 2,205 3.9 -14.3°
